Wind_Speed
41 41 41 41 42 42 42 41 42 42 42 42 41 40 39 39 40 40 40 39 39 39 39 39 38 38 39 39 39 39 39 40 40 40 39 40 40 40 40 41 42 41 41
41 41 42 42 42 42 42 42 42 42 42 42 43 42 41 41 41 41 41 40 40 40 40 40 40 39 40 40 39 39 40 40 40 40 40 40 40 40 40 41 41 42 41
41 42 42 42 43 42 42 42 43 42 42 43 43 43 43 43 43 43 43 43 42 41 41 41 40 40 41 41 41 40 40 40 40 40 40 41 41 41 41 41 41 41 42
42 42 41 42 42 43 43 43 44 43 43 43 43 43 44 43 43 44 44 44 44 43 42 41 41 41 41 41 42 41 41 41 42 42 42 42 42 41 41 41 41 41 41
42 42 41 42 43 43 43 43 44 44 44 44 44 44 44 44 44 44 45 45 45 44 43 43 42 42 41 42 42 42 42 42 42 42 42 42 42 42 41 41 41 40 40
42 42 42 42 42 42 42 42 43 44 44 44 45 44 44 45 45 45 45 45 45 44 44 43 43 42 42 42 42 42 43 43 43 43 42 42 42 41 40 40 40 39 39
41 42 42 42 42 42 42 42 43 42 43 44 45 45 45 45 45 45 46 45 45 44 44 44 43 43 43 43 43 43 43 43 42 42 42 42 42 41 40 39 38 38 38
42 42 43 43 42 42 42 42 42 42 42 43 44 44 44 44 44 44 44 44 44 44 44 44 44 43 42 42 43 44 44 43 42 42 42 42 41 40 39 39 38 38 37
42 42 42 42 41 41 42 42 42 42 42 42 43 44 44 44 44 44 44 44 43 43 44 44 44 43 43 42 42 42 42 42 42 41 41 40 40 39 39 39 38 39 39
42 41 42 41 41 41 41 41 41 42 42 42 42 43 44 44 44 44 44 44 44 44 43 43 43 43 43 42 42 41 41 41 41 40 39 39 39 39 39 40 40 40 39
42 42 41 41 41 41 41 41 41 41 42 42 42 43 43 43 43 43 43 44 44 43 43 43 43 43 43 43 43 42 41 41 41 40 39 39 39 38 38 39 39 39 38
42 42 42 41 41 41 41 42 41 41 41 42 42 42 43 43 43 43 43 43 43 42 42 43 42 43 43 43 43 42 42 41 40 40 39 39 39 38 38 38 39 39 38
42 42 42 42 42 42 42 42 42 42 42 42 42 42 41 42 43 43 43 43 42 42 42 42 42 41 42 42 42 41 41 41 40 40 40 40 39 39 39 38 38 38 38
42 42 43 43 43 43 43 43 43 42 42 42 42 41 41 41 41 42 42 42 41 41 41 40 40 40 41 41 42 41 41 40 41 41 40 40 39 38 38 38 38 37 37
43 43 43 44 44 43 43 44 43 43 42 42 42 42 42 41 42 41 41 41 41 40 40 40 40 40 40 41 41 40 40 40 41 41 40 39 38 38 38 38 37 37 37
43 43 43 43 44 44 44 44 43 43 43 44 44 43 42 42 42 41 41 40 40 40 40 40 40 40 39 40 40 40 39 40 41 41 40 39 38 38 38 38 37 38 37
42 42 43 43 43 44 44 44 43 43 44 44 43 42 42 42 41 40 39 39 39 39 39 39 39 39 39 39 39 39 39 39 39 39 39 39 39 38 38 38 38 37 37
41 41 42 42 43 44 44 44 44 44 43 43 43 43 42 41 40 40 40 39 39 39 38 38 39 39 39 39 39 39 38 38 38 38 38 37 37 37 37 37 37 37 36
39 40 40 41 42 42 43 43 43 43 43 43 43 43 42 42 41 41 41 40 40 40 39 39 39 39 39 39 38 38 38 37 38 38 38 37 36 36 36 36 36 36 35
38 39 40 40 41 41 41 41 41 41 41 42 42 42 43 43 43 42 42 42 41 41 41 41 40 40 39 39 39 39 39 39 39 39 38 37 37 36 35 35 35 35 34
35 37 37 39 39 40 40 40 39 39 39 39 40 40 41 42 42 43 43 43 42 42 42 41 41 40 40 39 39 39 39 39 39 38 38 37 37 36 36 35 35 35 35
34 34 35 36 37 37 38 38 38 38 38 38 38 39 40 41 41 42 43 43 42 42 41 41 41 40 40 40 40 40 39 39 39 38 38 37 37 36 36 36 36 35 35
33 33 33 34 34 34 35 35 35 36 36 36 37 37 38 39 39 40 42 42 42 42 42 41 41 41 41 41 41 41 40 39 39 38 38 38 37 37 37 37 36 36 36
32 33 33 33 32 32 33 33 33 33 34 34 35 36 37 37 38 39 40 41 41 41 41 40 40 40 40 40 41 41 40 40 39 39 38 38 37 37 37 37 36 36 36
32 32 32 31 31 31 31 32 32 32 32 33 34 35 35 36 37 37 38 38 39 39 40 40 40 40 40 40 40 40 40 39 39 39 38 38 37 37 37 37 37 37 37
30 30 30 30 30 30 31 31 31 31 31 32 33 33 34 34 35 36 36 36 37 38 38 39 39 39 39 39 40 40 39 39 38 38 37 37 36 36 37 37 37 37 37
Wind_Direction
262 261 260 260 260 259 259 259 259 259 259 260 262 263 264 265 266 266 265 266 268 269 269 270 272 273 272 273 274 275 276 277 278 278 278 277 277 278 277 275 274 273 272
262 261 260 260 260 260 261 260 260 259 260 261 261 261 264 265 267 267 266 266 267 268 268 270 270 272 273 273 274 275 275 276 277 277 277 277 276 277 276 276 275 274 273
263 262 261 261 261 261 261 260 259 259 260 261 262 262 263 265 266 265 265 265 267 268 268 269 271 272 273 273 274 276 276 276 276 276 276 277 277 277 277 277 277 276 275
264 263 262 262 262 262 262 260 259 259 260 262 262 263 264 264 264 264 263 264 265 267 268 269 270 272 273 273 274 275 276 276 276 276 277 277 277 278 278 278 277 276 275
264 264 264 264 263 262 261 260 260 259 260 261 262 263 263 263 263 263 264 264 265 266 267 269 270 272 273 273 274 274 274 275 276 277 277 276 276 277 277 278 277 276 275
264 264 265 265 264 263 261 260 260 260 260 261 262 263 263 263 263 263 264 264 265 266 267 268 269 271 271 272 272 274 275 275 276 277 276 276 275 276 277 277 276 275 274
265 264 264 264 264 264 263 261 261 261 261 261 262 262 263 263 262 262 262 263 264 265 267 267 268 270 270 271 272 273 274 275 276 276 276 276 276 275 276 276 276 275 275
265 264 264 263 263 263 263 262 262 262 261 261 261 262 262 262 262 262 262 263 264 264 266 267 267 269 271 272 272 273 273 274 275 276 276 276 276 276 276 276 275 275 275
266 265 264 264 264 264 264 263 263 262 262 262 261 261 261 262 261 261 262 263 264 265 266 267 267 268 269 271 272 273 273 274 274 275 275 275 275 274 274 275 275 275 275
265 264 264 264 264 264 264 264 263 263 263 262 262 262 262 262 261 261 262 263 264 264 265 267 268 268 268 270 271 272 273 273 274 274 274 275 274 274 274 274 275 275 275
263 263 264 264 264 264 264 265 264 264 264 264 263 263 262 262 261 261 262 263 263 264 265 266 267 268 268 268 269 270 272 273 273 274 274 274 274 274 274 274 274 275 275
263 263 263 264 264 263 263 264 264 264 265 265 264 264 263 264 263 264 264 264 264 264 264 265 267 268 268 268 268 269 270 271 272 273 274 274 273 273 274 274 274 274 274
264 263 263 262 263 262 263 264 264 264 265 265 265 264 265 265 265 265 264 264 264 264 265 265 266 268 268 267 267 268 269 270 271 272 273 274 273 273 273 273 273 274 274
266 264 263 263 263 263 263 263 264 264 264 264 264 264 265 265 265 264 264 263 263 263 264 265 266 267 267 268 268 267 268 268 269 271 272 272 272 272 272 272 272 273 273
267 266 264 263 263 263 263 264 264 264 263 263 264 264 264 264 264 264 263 262 262 262 263 264 265 266 267 268 268 268 268 269 269 271 272 272 271 271 271 272 272 272 272
268 267 266 265 264 264 264 264 265 264 264 264 263 262 261 261 262 262 262 261 261 261 262 263 265 266 267 267 268 268 268 270 271 271 271 271 271 271 270 270 272 273 272
270 269 267 266 265 265 265 264 264 264 264 264 263 262 260 258 259 261 261 262 262 262 262 263 264 265 266 266 267 267 268 269 271 272 272 272 271 271 271 271 271 272 272
272 270 269 268 267 267 266 265 265 264 264 264 263 262 260 258 258 259 260 261 262 263 264 264 265 265 265 266 267 267 267 269 271 272 274 274 272 271 271 271 272 272 270
273 271 270 269 269 268 268 267 266 265 264 264 263 262 261 260 259 259 260 260 262 263 264 265 266 266 265 265 266 267 268 269 271 272 273 273 272 272 271 271 271 271 270
275 273 271 270 270 270 269 268 267 266 265 264 263 262 261 260 259 259 260 261 262 264 265 265 265 265 265 265 266 267 268 269 271 272 272 271 270 270 270 269 269 270 269
277 275 273 272 272 270 269 268 267 266 265 264 263 262 260 260 259 259 260 261 262 263 264 265 264 264 265 266 267 268 268 269 270 270 270 270 269 269 269 268 268 269 270
278 276 275 274 273 272 270 268 266 265 264 264 263 262 260 260 260 259 259 259 261 262 262 262 262 263 264 265 266 267 269 269 269 268 267 267 267 268 268 268 269 269 270
280 279 277 277 275 274 271 269 267 266 265 264 264 263 262 261 260 260 260 260 260 260 261 261 262 263 264 265 266 267 268 269 268 268 266 266 266 266 266 267 268 269 269
282 281 279 278 277 275 273 271 270 268 267 266 265 264 263 262 262 262 261 260 259 260 260 260 261 262 263 265 266 267 267 267 267 267 266 266 266 266 266 266 267 268 269
284 282 280 278 277 275 273 272 271 270 269 268 267 266 265 264 263 262 261 260 259 259 259 260 261 262 263 264 265 266 267 267 267 266 266 266 266 267 267 267 267 268 269
284 283 281 279 277 276 274 272 271 271 271 270 269 267 266 265 265 263 262 261 260 260 260 260 260 261 262 264 264 265 266 266 266 265 265 265 265 266 267 267 268 269 269
Height
5591 5591 5592 5593 5594 5595 5596 5597 5598 5600 5601 5603 5604 5606 5606 5607 5607 5608 5609 5610 5610 5610 5611 5611 5611 5611 5611 5610 5609 5608 5607 5606 5606 5606 5605 5603 5602 5601 5600 5599 5598 5598 5599
5580 5580 5581 5582 5583 5584 5585 5586 5587 5589 5590 5591 5593 5594 5595 5596 5597 5598 5598 5599 5600 5600 5600 5600 5600 5600 5600 5600 5599 5598 5596 5595 5594 5594 5594 5592 5591 5590 5589 5588 5587 5586 5586
5568 5569 5569 5570 5571 5572 5574 5575 5576 5577 5578 5580 5581 5582 5583 5584 5585 5586 5587 5588 5588 5589 5589 5589 5589 5589 5589 5588 5588 5587 5585 5584 5582 5581 5581 5581 5579 5578 5577 5576 5575 5574 5574
5557 5557 5558 5559 5560 5561 5562 5563 5564 5565 5566 5568 5569 5570 5571 5572 5573 5574 5575 5575 5576 5577 5577 5577 5577 5577 5577 5577 5576 5575 5574 5572 5571 5569 5569 5569 5568 5567 5565 5564 5564 5563 5562
5545 5546 5546 5547 5548 5549 5549 5550 5551 5552 5554 5555 5556 5557 5558 5559 5560 5561 5562 5563 5564 5564 5565 5565 5566 5565 5565 5564 5564 5563 5562 5560 5559 5558 5557 5557 5556 5555 5554 5553 5551 5550 5550
5533 5534 5534 5535 5536 5536 5537 5538 5539 5540 5541 5542 5543 5544 5545 5546 5547 5547 5548 5550 5551 5552 5553 5553 5553 5553 5553 5552 5551 5550 5550 5548 5547 5546 5546 5545 5545 5544 5542 5541 5539 5539 5539
5522 5522 5522 5523 5524 5524 5525 5526 5527 5527 5528 5529 5530 5531 5532 5532 5533 5534 5535 5537 5538 5539 5540 5540 5541 5541 5540 5540 5539 5538 5537 5536 5535 5534 5534 5533 5533 5532 5531 5530 5528 5528 5528
5510 5510 5510 5511 5511 5512 5513 5513 5514 5515 5515 5516 5517 5518 5519 5520 5520 5521 5522 5524 5525 5526 5527 5527 5528 5527 5527 5527 5526 5526 5525 5524 5523 5522 5522 5521 5521 5520 5519 5519 5518 5518 5518
5497 5497 5497 5498 5498 5499 5500 5501 5501 5502 5503 5504 5504 5505 5506 5507 5508 5509 5510 5511 5512 5513 5514 5514 5515 5515 5515 5515 5514 5514 5513 5512 5511 5510 5510 5509 5509 5509 5508 5507 5507 5507 5507
5484 5484 5485 5485 5486 5487 5488 5488 5489 5490 5491 5491 5491 5492 5493 5494 5495 5496 5497 5498 5500 5501 5501 5502 5502 5502 5502 5502 5502 5501 5501 5500 5499 5499 5499 5498 5498 5497 5497 5497 5496 5496 5496
5471 5471 5472 5473 5473 5474 5475 5476 5477 5477 5478 5479 5480 5480 5480 5481 5482 5483 5484 5485 5486 5487 5488 5489 5489 5490 5489 5489 5489 5489 5489 5488 5488 5488 5488 5487 5487 5486 5486 5485 5485 5485 5485
5458 5459 5459 5460 5460 5461 5462 5463 5464 5464 5465 5466 5467 5467 5468 5468 5469 5470 5471 5472 5473 5474 5475 5476 5477 5477 5477 5477 5477 5477 5477 5476 5476 5476 5476 5476 5476 5475 5475 5474 5474 5474 5473
5446 5446 5446 5447 5447 5448 5449 5450 5451 5451 5452 5453 5454 5455 5455 5456 5457 5458 5459 5460 5460 5462 5463 5464 5464 5464 5464 5465 5465 5465 5465 5465 5465 5465 5465 5465 5464 5464 5463 5463 5463 5462 5462
5432 5433 5433 5434 5434 5435 5436 5436 5437 5438 5439 5440 5440 5442 5443 5443 5444 5444 5445 5447 5448 5449 5451 5452 5452 5452 5452 5453 5453 5453 5453 5453 5453 5453 5453 5453 5453 5452 5452 5452 5452 5452 5452
5419 5419 5420 5420 5421 5422 5422 5422 5423 5424 5425 5426 5427 5428 5429 5430 5431 5431 5432 5434 5435 5436 5438 5439 5440 5440 5440 5441 5441 5440 5440 5441 5441 5441 5441 5441 5441 5441 5441 5441 5440 5440 5441
5405 5406 5406 5407 5407 5408 5409 5409 5409 5410 5411 5412 5413 5414 5415 5417 5417 5418 5420 5421 5422 5424 5426 5427 5427 5428 5428 5429 5429 5429 5429 5429 5429 5429 5429 5429 5429 5429 5429 5429 5429 5429 5429
5391 5392 5392 5393 5393 5394 5395 5396 5397 5397 5397 5398 5399 5400 5401 5403 5404 5406 5407 5409 5410 5412 5413 5414 5415 5416 5416 5416 5417 5417 5417 5417 5417 5417 5417 5417 5417 5417 5417 5418 5418 5418 5418
5378 5378 5378 5379 5379 5380 5381 5382 5382 5383 5384 5385 5386 5386 5388 5390 5391 5393 5395 5396 5398 5399 5401 5401 5402 5403 5403 5404 5405 5405 5405 5405 5406 5406 5406 5405 5405 5405 5406 5406 5406 5406 5406
5365 5365 5365 5365 5366 5366 5367 5367 5368 5369 5370 5371 5372 5373 5375 5376 5378 5380 5382 5384 5385 5387 5388 5388 5389 5390 5391 5392 5392 5393 5393 5394 5394 5394 5394 5394 5394 5394 5394 5394 5395 5395 5395
5353 5352 5352 5352 5353 5353 5353 5354 5354 5355 5356 5357 5358 5360 5361 5363 5365 5367 5369 5370 5372 5373 5374 5375 5376 5377 5378 5379 5380 5380 5381 5381 5382 5382 5382 5382 5382 5382 5382 5383 5383 5384 5384
5341 5340 5340 5340 5340 5340 5340 5340 5341 5342 5343 5343 5345 5346 5347 5349 5351 5353 5355 5356 5358 5359 5360 5361 5363 5364 5365 5366 5367 5367 5368 5368 5369 5369 5369 5370 5370 5370 5371 5372 5372 5373 5373
5330 5329 5328 5328 5327 5327 5327 5328 5328 5329 5330 5331 5332 5333 5334 5335 5337 5339 5340 5342 5343 5345 5346 5347 5349 5350 5351 5353 5354 5354 5355 5355 5356 5356 5357 5358 5358 5359 5359 5360 5361 5361 5362
5320 5319 5318 5317 5316 5316 5316 5316 5316 5317 5317 5318 5319 5320 5321 5322 5323 5325 5326 5328 5329 5331 5332 5334 5335 5336 5338 5339 5340 5341 5342 5342 5343 5343 5344 5345 5346 5347 5347 5348 5349 5349 5350
5309 5308 5307 5306 5305 5305 5305 5305 5305 5305 5306 5306 5307 5308 5308 5309 5310 5312 5313 5314 5316 5317 5319 5320 5322 5323 5324 5325 5326 5327 5328 5329 5330 5331 5331 5333 5333 5334 5335 5336 5337 5337 5338
5299 5298 5297 5296 5295 5295 5295 5295 5295 5295 5295 5295 5295 5296 5296 5297 5298 5299 5300 5301 5302 5304 5305 5307 5308 5310 5311 5312 5313 5314 5315 5316 5316 5317 5318 5319 5320 5321 5322 5323 5324 5325 5325
5290 5288 5287 5286 5285 5285 5285 5285 5284 5284 5284 5284 5284 5284 5285 5285 5286 5286 5287 5288 5290 5291 5292 5294 5295 5297 5298 5299 5300 5301 5302 5302 5303 5304 5305 5306 5307 5308 5309 5310 5311 5312 5312